Regional Weather Roundup
Issued by NWS

Home | Current Version | Previous Version | Graphics & Text | Print | Product List | Glossary On
Versions: 1 2 3 4 5 6 7 8 9 10 11 12 13 14 15 16 17 18 19 20 21 22 23 24 25 26 27 28 29 30 31 32 33 34 35 36 37 38 39 40 41 42 43 44 45 46 47 48 49 50
790
ASUS44 KJAN 250010
RWRMS

MISSISSIPPI HOURLY WEATHER ROUNDUP
NATIONAL WEATHER SERVICE JACKSON MS
600 PM CST SAT JAN 24 2015

NOTE: "FAIR: INDICATES FEW OR NO CLOUDS BELOW 12,000 FEET WITH NO
SIGNIFICANT WEATHER AND/OR OBSTRUCTIONS TO VISIBILITY.

MSZ001>002-007>008-010>013-018>021-025>028-034>036-250100-
NORTHWEST MISSISSIPPI

CITY           SKY/WX    TMP DP  RH WIND       PRES   REMARKS
CLARKSDALE     FAIR      48  37  66 S7        29.97R
CLEVELAND      FAIR      48  42  80 S7        29.97S
GREENWOOD      CLEAR     45  36  70 SW7       29.99F
6HR MIN TEMP:  45; 6HR MAX TEMP:  53;

GREENVILLE     CLEAR     47  35  63 S12       29.98F
6HR MIN TEMP:  47; 6HR MAX TEMP:  56;

GRENADA        FAIR      46  34  61 CALM      29.99S
OLIVE BRANCH   PTCLDY    45  34  65 S6        29.93R
OXFORD         FAIR      45  32  61 S5        29.98R
TUNICA         CLEAR     45  36  70 SW10      29.95S
$$

MSZ003>006-009-014>017-022>024-029>033-037>039-250100-
NORTHEAST MISSISSIPPI

CITY           SKY/WX    TMP DP  RH WIND       PRES   REMARKS
COLUMBUS AFB   CLEAR     43  31  63 S5        29.99S
6HR MIN TEMP:  42; 6HR MAX TEMP:  52;

CORINTH        FAIR      48  28  46 S6        29.93R
GOLDN TRIANGLE CLEAR     45  30  57 SW5       29.99S
STARKVILLE     FAIR      41  34  75 SW3       30.00R
TUPELO         CLEAR     47  30  51 S10       29.96S
6HR MIN TEMP:  47; 6HR MAX TEMP:  54;

$$

MSZ040-058-250100-
CENTRAL MISSISSIPPI

CITY           SKY/WX    TMP DP  RH WIND       PRES   REMARKS
JACKSON INTL   PTCLDY    43  30  60 S6        30.03S
6HR MIN TEMP:  43; 6HR MAX TEMP:  56;

JACKSON HAWKNS CLEAR     48  31  51 SW3       30.03S
6HR MIN TEMP:  48; 6HR MAX TEMP:  55;

MERIDIAN KEY   CLEAR     43  35  73 S3        30.03R
6HR MIN TEMP:  42; 6HR MAX TEMP:  54;

MERIDIAN NAS   CLEAR     48  30  49 SW3       30.03R
6HR MIN TEMP:  48; 6HR MAX TEMP:  54;

RAYMOND        FAIR      48  45  87 MISG      30.03S
VICKSBURG      PTCLDY    50  38  63 S5        30.03S
6HR MIN TEMP:  50; 6HR MAX TEMP:  57;

$$

MSZ059>079-250100-
SOUTH MISSISSIPPI

CITY           SKY/WX    TMP DP  RH WIND       PRES   REMARKS
BROOKHAVEN     FAIR      50  34  53 CALM      30.05F
HATTIESBURG    CLEAR     45  37  73 S3        30.06R
6HR MIN TEMP:  45; 6HR MAX TEMP:  56;

MCCOMB         CLEAR     50  32  50 SW3       30.06R
6HR MIN TEMP:  50; 6HR MAX TEMP:  57;

NATCHEZ        CLEAR     52  34  50 SW5       30.05F
6HR MIN TEMP:  50; 6HR MAX TEMP:  55;

PINE BELT      CLEAR     45  36  70 CALM      30.06S
6HR MIN TEMP:  45; 6HR MAX TEMP:  55;

$$

MSZ080>082-250100-
COASTAL MISSISSIPPI

CITY           SKY/WX    TMP DP  RH WIND       PRES   REMARKS
BAY ST LOUIS   CLEAR     46  34  61 SW5       30.09R
BILOXI         CLEAR     47  39  73 SW5       30.07S
6HR MIN TEMP:  47; 6HR MAX TEMP:  59;

PASCAGOULA     CLEAR     44  39  82 CALM      30.08R
6HR MIN TEMP:  44; 6HR MAX TEMP:  58;

GULFPORT       CLEAR     48  36  63 CALM      30.07S
6HR MIN TEMP:  48; 6HR MAX TEMP:  57;

$$



USA.gov is the U.S. government's official web portal to all federal, state and local government web resources and services.